Jefferson City, MO

12:48 PM CDT on August 19, 2017 (GMT -0500)
Jefferson City Memorial

Weather History for KJEF - October, 2012

Change the Weather History Date:

Friday, October 5, 2012

  Actual Average Record
Temperature  
Mean Temperature 46 °F -  
Max Temperature 53 °F 73 °F 93 °F (1937)
Min Temperature 37 °F 46 °F 30 °F (1950)
Degree Days  
Heating Degree Days 19    
Moisture  
Dew Point 41 °F    
Average Humidity 80    
Maximum Humidity 89    
Minimum Humidity 61    
Precipitation  
Precipitation 0.23 in - - ()
Sea Level Pressure  
Sea Level Pressure 30.22 in    
Wind  
Wind Speed 4 mph (North)    
Max Wind Speed 7 mph    
Max Gust Speed -    
Visibility 8 miles    
Events Rain , Thunderstorm    
Averages and records for this station are not official NWS values.
T = Trace of Precipitation, MM = Missing Value Source: NWS Daily Summary

Daily Weather History Graph

Daily Weather History Graph

Search for Another Location

Airport or City:

Trip Planner

Search our weather history database for the weather conditions in past years. The results will help you decide how hot, cold, wet, or windy it might be!

Date:

Astronomy

Oct. 05, 2012 Rise Set
Actual Time 7:08 AM CDT 6:44 PM CDT
Civil Twilight 6:42 AM CDT 7:10 PM CDT
Nautical Twilight 6:11 AM CDT 7:41 PM CDT
Astronomical Twilight 5:40 AM CDT 8:12 PM CDT
Moon 10:11 PM CDT (10/5) 12:13 PM CDT (10/5)
Length of Visible Light 12h 28m
Length of Day
11h 35m
Waning Gibbous, 74% of the Moon is Illuminated
Oct 5
Waning Gibbous
Oct 8
Last Quarter
Oct 15
New
Oct 21
First Quarter
Oct 29
Full

Hourly Weather History & Observations

Time (CDT) Temp. Windchill Dew Point Humidity Pressure Visibility Wind Dir Wind Speed Gust Speed Precip Events Conditions
12:53 AM 53.1 °F - 39.9 °F 61% 30.18 in 10.0 mi Variable 4.6 mph - N/A   Overcast
1:53 AM - - - N/A% 30.23 in - North - - N/A   Unknown
3:53 AM 50.0 °F - 43.0 °F 77% 30.19 in 10.0 mi NE 5.8 mph - N/A Rain Light Rain
4:53 AM 50.0 °F - 43.0 °F 77% 30.18 in 10.0 mi ENE 6.9 mph - 0.00 in Rain Light Rain
5:09 AM 48.2 °F - 42.8 °F 82% 30.23 in 8.0 mi Variable 3.5 mph - 0.01 in Rain , Thunderstorm Rain
5:24 AM 48.2 °F - 42.8 °F 82% 30.24 in 10.0 mi North 5.8 mph - 0.02 in   Overcast
5:53 AM 48.0 °F - 44.1 °F 86% 30.21 in 9.0 mi Calm Calm - 0.07 in Rain Light Rain
6:41 AM 48.2 °F - 44.6 °F 87% 30.24 in 5.0 mi Calm Calm - 0.01 in Rain Light Rain
6:53 AM 48.0 °F - 45.0 °F 89% 30.21 in 4.0 mi North 3.5 mph - 0.02 in Rain Light Rain
7:00 AM 48.2 °F - 44.6 °F 87% 30.24 in 5.0 mi Variable 3.5 mph - 0.01 in Rain Light Rain
7:36 AM 48.2 °F - 44.6 °F 87% 30.23 in 10.0 mi NE 3.5 mph - 0.01 in   Overcast
7:53 AM 48.0 °F - 44.1 °F 86% 30.21 in 10.0 mi Calm Calm - 0.01 in   Overcast
8:23 AM 48.2 °F - 44.6 °F 87% 30.25 in 10.0 mi North 3.5 mph - N/A   Overcast
8:33 AM 48.2 °F - 44.6 °F 87% 30.26 in 10.0 mi NNW 4.6 mph - N/A Thunderstorm Thunderstorm
8:46 AM 48.2 °F - 42.8 °F 82% 30.25 in 4.0 mi North 5.8 mph - 0.04 in Rain , Thunderstorm Heavy Thunderstorms and Rain
8:53 AM 48.0 °F - 43.0 °F 83% 30.22 in 4.0 mi North 6.9 mph - 0.05 in Rain Light Rain
9:11 AM 48.2 °F - 42.8 °F 82% 30.23 in 10.0 mi Calm Calm - 0.00 in Rain , Thunderstorm Light Rain
9:53 AM 46.9 °F - 42.1 °F 83% 30.20 in 10.0 mi NNE 4.6 mph - 0.01 in   Overcast
10:53 AM 46.9 °F - 43.0 °F 86% 30.21 in 9.0 mi Variable 3.5 mph - 0.00 in Rain Light Rain
11:42 AM 48.2 °F - 42.8 °F 82% 30.23 in 10.0 mi North 3.5 mph - 0.00 in   Overcast
12:19 PM 48.2 °F - 41.0 °F 76% 30.21 in 10.0 mi Variable 4.6 mph - 0.00 in Rain Light Rain
12:53 PM 46.9 °F - 41.0 °F 80% 30.19 in 10.0 mi North 5.8 mph - 0.02 in   Overcast
1:38 PM 46.4 °F - 41.0 °F 81% 30.21 in 10.0 mi Calm Calm - 0.00 in Rain , Thunderstorm Light Rain
1:51 PM 46.4 °F 43.5 °F 39.2 °F 76% 30.20 in 3.0 mi North 5.8 mph - 0.03 in Rain Light Rain
1:53 PM 46.9 °F - 39.9 °F 77% 30.18 in 3.0 mi North 4.6 mph - 0.03 in Rain Light Rain
2:00 PM 46.4 °F 42.9 °F 39.2 °F 76% 30.20 in 4.0 mi North 6.9 mph - 0.01 in Rain Rain
2:53 PM 46.9 °F - 41.0 °F 80% 30.23 in 6.0 mi WNW 3.5 mph - 0.02 in Rain Light Rain
3:53 PM 46.9 °F - 39.0 °F 74% 30.20 in 10.0 mi NNW 5.8 mph - 0.00 in   Overcast
4:53 PM 46.9 °F - 37.9 °F 71% 30.20 in 10.0 mi NNW 5.8 mph - N/A   Overcast
5:53 PM 48.0 °F - 37.9 °F 68% 30.19 in 10.0 mi Calm Calm - N/A   Overcast
6:53 PM 46.0 °F 44.8 °F 36.0 °F 68% 30.21 in 10.0 mi NW 3.5 mph - N/A   Clear
7:53 PM 42.1 °F - 37.9 °F 85% 30.21 in 10.0 mi Calm Calm - N/A   Clear
8:53 PM 41.0 °F 39.0 °F 36.0 °F 82% 30.23 in 10.0 mi NW 3.5 mph - N/A   Clear
9:53 PM 39.9 °F 37.8 °F 34.0 °F 79% 30.24 in 10.0 mi WNW 3.5 mph - N/A   Clear
10:53 PM 39.0 °F 36.8 °F 34.0 °F 82% 30.25 in 10.0 mi WNW 3.5 mph - N/A   Clear
11:53 PM 37.9 °F - 33.1 °F 83% 30.25 in 10.0 mi Calm Calm - N/A   Clear